Miami, FL

3:24 PM EDT on July 25, 2016 (GMT -0400)
Miami International

Weather History for KMIA - February, 2013

Change the Weather History Date:

Wednesday, February 13, 2013

  Actual Average Record
Temperature  
Mean Temperature 77 °F 70 °F  
Max Temperature 83 °F 78 °F 86 °F (1982)
Min Temperature 71 °F 62 °F 35 °F (1899)
Degree Days  
Heating Degree Days 0 1  
Month to date heating degree days 0 13  
Since 1 July heating degree days 20 103  
Cooling Degree Days 12 6  
Month to date cooling degree days 88 72  
Year to date cooling degree days 357 223  
Growing Degree Days 26 (Base 50)    
Moisture  
Dew Point 70 °F    
Average Humidity 81    
Maximum Humidity 100    
Minimum Humidity 62    
Precipitation  
Precipitation 0.00 in 0.09 in 1.50 in (1947)
Month to date precipitation T 1.04  
Year to date precipitation 0.54 2.66  
Snow  
Snow 0.00 in - - ()
Month to date snowfall 0.0  
Since 1 July snowfall 0.0  
Snow Depth 0.00 in    
Sea Level Pressure  
Sea Level Pressure 29.99 in    
Wind  
Wind Speed 8 mph (SSE)    
Max Wind Speed 18 mph    
Max Gust Speed 28 mph    
Visibility 10 miles    
Events      
T = Trace of Precipitation, MM = Missing Value Source: NWS Daily Summary

Daily Weather History Graph

Daily Weather History Graph

Search for Another Location

Airport or City:

Trip Planner

Search our weather history database for the weather conditions in past years. The results will help you decide how hot, cold, wet, or windy it might be!

Date:

Astronomy

Feb. 13, 2013 Rise Set
Actual Time 6:57 AM EST 6:13 PM EST
Civil Twilight 6:34 AM EST 6:37 PM EST
Nautical Twilight 6:07 AM EST 7:04 PM EST
Astronomical Twilight 5:40 AM EST 7:31 PM EST
Moon 8:53 AM EST (2/13) 9:44 PM EST (2/13)
Length of Visible Light 12h 02m
Length of Day
11h 15m
Waxing Crescent, 13% of the Moon is Illuminated
Feb 13
Waxing Crescent
Feb 17
First Quarter
Feb 25
Full
Mar 4
Last Quarter
Mar 11
New

Hourly Weather History & Observations

Time (EST) Temp. Heat Index Dew Point Humidity Pressure Visibility Wind Dir Wind Speed Gust Speed Precip Events Conditions
12:53 AM 71.1 °F - 68.0 °F 90% 30.03 in 10.0 mi SSE 3.5 mph - N/A   Scattered Clouds
1:53 AM 72.0 °F - 69.1 °F 91% 30.01 in 10.0 mi Calm Calm - N/A   Scattered Clouds
2:53 AM 71.1 °F - 69.1 °F 93% 30.00 in 10.0 mi Variable 5.8 mph - N/A   Mostly Cloudy
3:53 AM 72.0 °F - 70.0 °F 93% 29.99 in 9.0 mi SSE 4.6 mph - N/A   Scattered Clouds
4:53 AM 72.0 °F - 71.1 °F 97% 30.00 in 9.0 mi Calm Calm - N/A   Scattered Clouds
5:53 AM 71.1 °F - 70.0 °F 96% 30.00 in 9.0 mi SE 3.5 mph - N/A   Scattered Clouds
6:53 AM 72.0 °F - 70.0 °F 93% 30.01 in 10.0 mi SSE 4.6 mph - N/A   Scattered Clouds
7:53 AM 73.0 °F - 71.1 °F 93% 30.01 in 10.0 mi SE 5.8 mph - N/A   Scattered Clouds
8:53 AM 77.0 °F - 71.1 °F 82% 30.02 in 10.0 mi South 12.7 mph - N/A   Scattered Clouds
9:33 AM 78.8 °F - 71.6 °F 78% 30.03 in 10.0 mi SSE 12.7 mph 19.6 mph N/A   Mostly Cloudy
9:53 AM 79.0 °F - 71.1 °F 77% 30.03 in 10.0 mi South 11.5 mph 19.6 mph N/A   Mostly Cloudy
10:53 AM 81.0 °F 84.9 °F 71.1 °F 72% 30.03 in 10.0 mi SSE 12.7 mph 23.0 mph N/A   Mostly Cloudy
11:53 AM 81.0 °F 84.4 °F 70.0 °F 69% 30.01 in 10.0 mi SE 9.2 mph - N/A   Mostly Cloudy
12:53 PM 81.0 °F 84.4 °F 70.0 °F 69% 29.99 in 10.0 mi SSE 16.1 mph 20.7 mph N/A   Mostly Cloudy
1:15 PM 82.4 °F 86.3 °F 69.8 °F 66% 29.97 in 10.0 mi South 11.5 mph 23.0 mph N/A   Mostly Cloudy
1:53 PM 82.0 °F 85.9 °F 70.0 °F 67% 29.96 in 10.0 mi SSE 17.3 mph - N/A   Mostly Cloudy
2:53 PM 81.0 °F 84.1 °F 69.1 °F 67% 29.94 in 10.0 mi SSE 17.3 mph 21.9 mph N/A   Mostly Cloudy
3:53 PM 82.0 °F 85.9 °F 70.0 °F 67% 29.94 in 10.0 mi South 10.4 mph 19.6 mph N/A   Mostly Cloudy
4:53 PM 81.0 °F 83.3 °F 66.9 °F 62% 29.94 in 10.0 mi South 15.0 mph - N/A   Scattered Clouds
5:53 PM 80.1 °F 82.7 °F 68.0 °F 67% 29.94 in 10.0 mi South 12.7 mph - N/A   Scattered Clouds
6:53 PM 77.0 °F - 68.0 °F 74% 29.96 in 10.0 mi South 5.8 mph - N/A   Partly Cloudy
7:53 PM 75.9 °F - 70.0 °F 82% 29.96 in 10.0 mi South 8.1 mph - N/A   Partly Cloudy
8:53 PM 75.0 °F - 70.0 °F 84% 29.99 in 10.0 mi SSW 5.8 mph - N/A   Clear
9:53 PM 73.0 °F - 69.1 °F 87% 29.99 in 10.0 mi South 4.6 mph - N/A   Clear
10:53 PM 73.0 °F - 70.0 °F 90% 30.00 in 10.0 mi South 4.6 mph - N/A   Scattered Clouds
11:53 PM 72.0 °F - 70.0 °F 93% 30.00 in 10.0 mi South 3.5 mph - N/A   Scattered Clouds